TimeEST,TemperatureF,Dew PointF,Humidity,Sea Level PressureIn,VisibilityMPH,Wind Direction,Wind SpeedMPH,Gust SpeedMPH,PrecipitationIn,Events,Conditions,WindDirDegrees,DateUTC
12:56 AM,68.0,61.0,78,29.79,10.0,SSW,6.9,16.1,N/A,,Clear,200,2012-12-11 05:56:00
1:30 AM,68.0,62.6,83,29.79,10.0,SSW,9.2,-,N/A,,Partly Cloudy,210,2012-12-11 06:30:00
1:56 AM,68.0,64.0,87,29.81,10.0,SW,6.9,-,N/A,,Partly Cloudy,220,2012-12-11 06:56:00
2:56 AM,69.1,64.0,84,29.81,10.0,SW,8.1,-,N/A,,Clear,220,2012-12-11 07:56:00
3:56 AM,68.0,64.0,87,29.81,10.0,WSW,6.9,-,N/A,,Clear,240,2012-12-11 08:56:00
4:56 AM,68.0,64.9,90,29.81,10.0,SW,5.8,-,N/A,,Clear,230,2012-12-11 09:56:00
5:56 AM,66.9,64.0,90,29.82,9.0,SSW,4.6,-,N/A,,Clear,210,2012-12-11 10:56:00
6:56 AM,66.9,63.0,87,29.85,10.0,SW,5.8,-,0.01,,Clear,230,2012-12-11 11:56:00
7:11 AM,-9999,-9999,N/A,-9999,-9999.0,North,-9999.0,-,N/A,,Unknown,0,2012-12-11 12:11:00
7:56 AM,66.9,63.0,87,29.88,7.0,WSW,4.6,-,N/A,,Mostly Cloudy,240,2012-12-11 12:56:00
8:56 AM,68.0,63.0,84,29.91,10.0,WSW,11.5,-,N/A,,Scattered Clouds,250,2012-12-11 13:56:00
9:00 AM,-9999,-9999,N/A,-9999,-9999.0,North,-9999.0,-,N/A,,Unknown,0,2012-12-11 14:00:00
9:08 AM,69.8,62.6,78,29.91,10.0,West,11.5,-,N/A,,Mostly Cloudy,260,2012-12-11 14:08:00
9:32 AM,69.8,60.8,73,29.92,10.0,West,9.2,-,N/A,,Mostly Cloudy,260,2012-12-11 14:32:00
9:47 AM,69.8,60.8,73,29.93,10.0,West,11.5,-,N/A,,Mostly Cloudy,270,2012-12-11 14:47:00
9:56 AM,69.1,61.0,75,29.93,10.0,West,11.5,-,N/A,,Mostly Cloudy,280,2012-12-11 14:56:00
10:56 AM,69.1,60.1,73,29.95,10.0,WNW,12.7,-,N/A,,Mostly Cloudy,290,2012-12-11 15:56:00
11:03 AM,69.8,59.0,68,29.94,10.0,West,10.4,-,N/A,,Overcast,280,2012-12-11 16:03:00
11:56 AM,70.0,57.0,63,29.95,10.0,WNW,12.7,-,N/A,,Mostly Cloudy,300,2012-12-11 16:56:00
1:03 PM,69.8,55.4,60,29.93,10.0,West,9.2,-,N/A,,Mostly Cloudy,280,2012-12-11 18:03:00
1:56 PM,70.0,54.0,57,29.94,10.0,West,8.1,-,N/A,,Mostly Cloudy,270,2012-12-11 18:56:00
2:56 PM,69.1,54.0,58,29.95,10.0,West,6.9,-,N/A,,Overcast,280,2012-12-11 19:56:00
3:56 PM,66.9,55.0,66,29.97,10.0,Calm,Calm,-,N/A,,Overcast,0,2012-12-11 20:56:00
4:56 PM,66.0,55.9,70,29.99,10.0,Calm,Calm,-,0.00,,Overcast,0,2012-12-11 21:56:00
5:56 PM,63.0,57.9,84,30.03,5.0,Calm,Calm,-,0.01,Rain,Rain,0,2012-12-11 22:56:00
6:56 PM,62.1,59.0,90,30.04,5.0,NE,3.5,-,0.07,Rain,Light Rain,50,2012-12-11 23:56:00
7:56 PM,62.1,59.0,90,30.05,8.0,Calm,Calm,-,0.06,,Overcast,0,2012-12-12 00:56:00
8:56 PM,62.1,59.0,90,30.05,7.0,East,4.6,-,0.00,Rain,Light Rain,100,2012-12-12 01:56:00
9:11 PM,60.8,57.2,88,30.06,7.0,NNE,12.7,-,0.00,Rain,Light Rain,30,2012-12-12 02:11:00
9:52 PM,55.4,51.8,88,30.07,10.0,ENE,12.7,-,0.00,,Overcast,60,2012-12-12 02:52:00
9:56 PM,55.9,52.0,87,30.09,10.0,NE,11.5,-,0.01,,Overcast,50,2012-12-12 02:56:00
10:56 PM,54.0,50.0,86,30.13,8.0,NNE,10.4,-,N/A,,Overcast,30,2012-12-12 03:56:00
11:27 PM,53.6,50.0,88,30.12,2.5,NE,9.2,-,N/A,,Overcast,50,2012-12-12 04:27:00